Location: ?�kov
(49.4404°N, 15.1201°E)
Time: 07:52:43
(UTC+00:00)

CZ-4C R/B - Pass Details

Date: 07 June 2020
Orbit: 463 x 637 km, 98.0° (Epoch: 15 July)

Event Time Altitude Azimuth Distance (km) Brightness Sun altitude
Exits shadow 00:38:12 20° 174° (S) 1,471 5.0 -14.4°
Maximum altitude 00:41:14 73° 257° (WSW) 669 3.6 -14.2°
Drops below altitude 10° 00:45:42 10° 343° (NNW) 2,037 6.9 -13.9°
Sets 00:47:56 0° 345° (NNW) 2,945 7.9 -13.8°
